owner,sensor,date,latitude,longitude,vertical_datum,sea_water_practical_salinity,qcFlag 
DISL,ioos:station:DISL:PPTA:1,2013-03-01T00:00:00Z,30.2791,-87.5561,1.049,15.65,1111122 
DISL,ioos:station:DISL:PPTA:1,2013-03-01T00:30:00Z,30.2791,-87.5561,1.052,15.62,1111122 
DISL,ioos:station:DISL:PPTA:1,2013-03-01T01:00:00Z,30.2791,-87.5561,1.04,14.15,1111122 
DISL,ioos:station:DISL:PPTA:1,2013-03-01T01:30:00Z,30.2791,-87.5561,1.064,14.02,1111122 
DISL,ioos:station:DISL:PPTA:1,2013-03-01T02:00:00Z,30.2791,-87.5561,1.044,14.83,1111122 
DISL,ioos:station:DISL:PPTA:1,2013-03-01T02:30:00Z,30.2791,-87.5561,1.05,13.86,1111122 
DISL,ioos:station:DISL:PPTA:1,2013-03-01T03:00:00Z,30.2791,-87.5561,1.033,13.83,1111122 
DISL,ioos:station:DISL:PPTA:1,2013-03-01T03:30:00Z,30.2791,-87.5561,1.012,13.84,1111122 
DISL,ioos:station:DISL:PPTA:1,2013-03-01T04:00:00Z,30.2791,-87.5561,1.029,15.38,1111122 
DISL,ioos:station:DISL:PPTA:1,2013-03-01T04:30:00Z,30.2791,-87.5561,1.029,15.58,1111122 
DISL,ioos:station:DISL:PPTA:1,2013-03-01T05:00:00Z,30.2791,-87.5561,1.014,14.86,1111122 
DISL,ioos:station:DISL:PPTA:1,2013-03-01T05:30:00Z,30.2791,-87.5561,1.017,15.83,1111122 
DISL,ioos:station:DISL:PPTA:1,2013-03-01T06:00:00Z,30.2791,-87.5561,1.032,15.34,1111122 
DISL,ioos:station:DISL:PPTA:1,2013-03-01T06:30:00Z,30.2791,-87.5561,1.028,13.6,1111122 
DISL,ioos:station:DISL:PPTA:1,2013-03-01T07:00:00Z,30.2791,-87.5561,1.019,16.08,1111122 
DISL,ioos:station:DISL:PPTA:1,2013-03-01T07:30:00Z,30.2791,-87.5561,1.017,12.89,1111122 
DISL,ioos:station:DISL:PPTA:1,2013-03-01T08:00:00Z,30.2791,-87.5561,1.026,13.31,1111122 
DISL,ioos:station:DISL:PPTA:1,2013-03-01T08:30:00Z,30.2791,-87.5561,1.017,14.52,1111122 
DISL,ioos:station:DISL:PPTA:1,2013-03-01T09:00:00Z,30.2791,-87.5561,1.009,13.53,1111122 
DISL,ioos:station:DISL:PPTA:1,2013-03-01T09:30:00Z,30.2791,-87.5561,1.026,12.37,1111122 
DISL,ioos:station:DISL:PPTA:1,2013-03-01T10:00:00Z,30.2791,-87.5561,1.014,12.16,1111122 
DISL,ioos:station:DISL:PPTA:1,2013-03-01T10:30:00Z,30.2791,-87.5561,1.011,12.8,1111122 
DISL,ioos:station:DISL:PPTA:1,2013-03-01T11:00:00Z,30.2791,-87.5561,1.04,11.78,1111122 
DISL,ioos:station:DISL:PPTA:1,2013-03-01T11:30:00Z,30.2791,-87.5561,1.028,11.8,1111122 
DISL,ioos:station:DISL:PPTA:1,2013-03-01T12:00:00Z,30.2791,-87.5561,1.026,12.05,1111122 
DISL,ioos:station:DISL:PPTA:1,2013-03-01T12:30:00Z,30.2791,-87.5561,1.034,12.06,1111122 
DISL,ioos:station:DISL:PPTA:1,2013-03-01T13:00:00Z,30.2791,-87.5561,1.038,11.73,1111122 
DISL,ioos:station:DISL:PPTA:1,2013-03-01T13:30:00Z,30.2791,-87.5561,1.055,17.25,1111122 
DISL,ioos:station:DISL:PPTA:1,2013-03-01T14:00:00Z,30.2791,-87.5561,1.059,14.86,1111122 
DISL,ioos:station:DISL:PPTA:1,2013-03-01T14:30:00Z,30.2791,-87.5561,1.055,22.85,1111122 
DISL,ioos:station:DISL:PPTA:1,2013-03-01T15:00:00Z,30.2791,-87.5561,1.067,31.65,1111122 
DISL,ioos:station:DISL:PPTA:1,2013-03-01T15:30:00Z,30.2791,-87.5561,1.062,32.97,1111122 
DISL,ioos:station:DISL:PPTA:1,2013-03-01T16:00:00Z,30.2791,-87.5561,1.074,33.17,1111122 
DISL,ioos:station:DISL:PPTA:1,2013-03-01T16:30:00Z,30.2791,-87.5561,1.089,33.81,1111122 
DISL,ioos:station:DISL:PPTA:1,2013-03-01T17:00:00Z,30.2791,-87.5561,1.091,33.78,1111122 
DISL,ioos:station:DISL:PPTA:1,2013-03-01T17:30:00Z,30.2791,-87.5561,1.098,34.0,1111122 
DISL,ioos:station:DISL:PPTA:1,2013-03-01T18:00:00Z,30.2791,-87.5561,1.109,34.06,1111122 
DISL,ioos:station:DISL:PPTA:1,2013-03-01T18:30:00Z,30.2791,-87.5561,1.102,34.07,1111122 
DISL,ioos:station:DISL:PPTA:1,2013-03-01T19:00:00Z,30.2791,-87.5561,1.104,33.99,1111122 
DISL,ioos:station:DISL:PPTA:1,2013-03-01T19:30:00Z,30.2791,-87.5561,1.091,33.9,1111122 
DISL,ioos:station:DISL:PPTA:1,2013-03-01T20:00:00Z,30.2791,-87.5561,1.083,34.15,1111122 
DISL,ioos:station:DISL:PPTA:1,2013-03-01T20:30:00Z,30.2791,-87.5561,1.058,34.24,1111122 
DISL,ioos:station:DISL:PPTA:1,2013-03-01T21:00:00Z,30.2791,-87.5561,1.027,34.35,1111122 
DISL,ioos:station:DISL:PPTA:1,2013-03-01T21:30:00Z,30.2791,-87.5561,1.028,28.29,1111122 
DISL,ioos:station:DISL:PPTA:1,2013-03-01T22:00:00Z,30.2791,-87.5561,1.014,24.54,1111122 
DISL,ioos:station:DISL:PPTA:1,2013-03-01T22:30:00Z,30.2791,-87.5561,1.004,26.41,1111122 
DISL,ioos:station:DISL:PPTA:1,2013-03-01T23:00:00Z,30.2791,-87.5561,1.008,24.84,1111122 
DISL,ioos:station:DISL:PPTA:1,2013-03-01T23:30:00Z,30.2791,-87.5561,0.993,19.7,1111122 
DISL,ioos:station:DISL:PPTA:1,2013-03-02T00:00:00Z,30.2791,-87.5561,0.99,23.02,1111122 
DISL,ioos:station:DISL:PPTA:1,2013-03-02T00:30:00Z,30.2791,-87.5561,0.989,17.06,1111122 
DISL,ioos:station:DISL:PPTA:1,2013-03-02T01:00:00Z,30.2791,-87.5561,0.985,16.94,1111122 
DISL,ioos:station:DISL:PPTA:1,2013-03-02T01:30:00Z,30.2791,-87.5561,0.986,17.33,1111122 
DISL,ioos:station:DISL:PPTA:1,2013-03-02T02:00:00Z,30.2791,-87.5561,0.973,16.84,1111122 
DISL,ioos:station:DISL:PPTA:1,2013-03-02T02:30:00Z,30.2791,-87.5561,0.959,15.54,1111122 
DISL,ioos:station:DISL:PPTA:1,2013-03-02T03:00:00Z,30.2791,-87.5561,0.949,15.95,1111122 
DISL,ioos:station:DISL:PPTA:1,2013-03-02T03:30:00Z,30.2791,-87.5561,0.944,16.53,1111122 
DISL,ioos:station:DISL:PPTA:1,2013-03-02T04:00:00Z,30.2791,-87.5561,0.94,15.42,1111122 
DISL,ioos:station:DISL:PPTA:1,2013-03-02T04:30:00Z,30.2791,-87.5561,0.928,14.87,1111122 
DISL,ioos:station:DISL:PPTA:1,2013-03-02T05:00:00Z,30.2791,-87.5561,0.919,15.02,1111122 
DISL,ioos:station:DISL:PPTA:1,2013-03-02T05:30:00Z,30.2791,-87.5561,0.913,14.78,1111122 
DISL,ioos:station:DISL:PPTA:1,2013-03-02T06:00:00Z,30.2791,-87.5561,0.934,14.48,1111122 
DISL,ioos:station:DISL:PPTA:1,2013-03-02T06:30:00Z,30.2791,-87.5561,0.935,13.69,1111122 
DISL,ioos:station:DISL:PPTA:1,2013-03-02T07:00:00Z,30.2791,-87.5561,0.936,14.35,1111122 
DISL,ioos:station:DISL:PPTA:1,2013-03-02T07:30:00Z,30.2791,-87.5561,0.984,13.24,1111122 
DISL,ioos:station:DISL:PPTA:1,2013-03-02T08:00:00Z,30.2791,-87.5561,0.976,11.32,1111122 
DISL,ioos:station:DISL:PPTA:1,2013-03-02T08:30:00Z,30.2791,-87.5561,0.945,11.81,1111122 
DISL,ioos:station:DISL:PPTA:1,2013-03-02T09:00:00Z,30.2791,-87.5561,0.941,14.24,1111122 
DISL,ioos:station:DISL:PPTA:1,2013-03-02T09:30:00Z,30.2791,-87.5561,0.938,11.56,1111122 
DISL,ioos:station:DISL:PPTA:1,2013-03-02T10:00:00Z,30.2791,-87.5561,0.935,11.87,1111122 
DISL,ioos:station:DISL:PPTA:1,2013-03-02T10:30:00Z,30.2791,-87.5561,0.958,11.34,1111122 
DISL,ioos:station:DISL:PPTA:1,2013-03-02T11:00:00Z,30.2791,-87.5561,0.973,11.31,1111122 
DISL,ioos:station:DISL:PPTA:1,2013-03-02T11:30:00Z,30.2791,-87.5561,0.979,14.55,1111122 
DISL,ioos:station:DISL:PPTA:1,2013-03-02T12:00:00Z,30.2791,-87.5561,0.976,14.23,1111122 
DISL,ioos:station:DISL:PPTA:1,2013-03-02T12:30:00Z,30.2791,-87.5561,0.977,25.27,1111122 
DISL,ioos:station:DISL:PPTA:1,2013-03-02T13:00:00Z,30.2791,-87.5561,0.967,30.84,1111122 
DISL,ioos:station:DISL:PPTA:1,2013-03-02T13:30:00Z,30.2791,-87.5561,0.978,32.31,1111122 
DISL,ioos:station:DISL:PPTA:1,2013-03-02T14:00:00Z,30.2791,-87.5561,1.017,32.93,1111122 
DISL,ioos:station:DISL:PPTA:1,2013-03-02T14:30:00Z,30.2791,-87.5561,1.018,32.81,1111122 
DISL,ioos:station:DISL:PPTA:1,2013-03-02T15:00:00Z,30.2791,-87.5561,1.028,33.03,1111122 
DISL,ioos:station:DISL:PPTA:1,2013-03-02T15:30:00Z,30.2791,-87.5561,1.084,33.74,1111122 
DISL,ioos:station:DISL:PPTA:1,2013-03-02T16:00:00Z,30.2791,-87.5561,1.073,33.8,1111122 
DISL,ioos:station:DISL:PPTA:1,2013-03-02T16:30:00Z,30.2791,-87.5561,1.084,33.8,1111122 
DISL,ioos:station:DISL:PPTA:1,2013-03-02T17:00:00Z,30.2791,-87.5561,1.105,33.95,1111122 
DISL,ioos:station:DISL:PPTA:1,2013-03-02T17:30:00Z,30.2791,-87.5561,1.105,33.97,1111122 
DISL,ioos:station:DISL:PPTA:1,2013-03-02T18:00:00Z,30.2791,-87.5561,1.116,33.98,1111122 
DISL,ioos:station:DISL:PPTA:1,2013-03-02T18:30:00Z,30.2791,-87.5561,1.096,34.01,1111122 
DISL,ioos:station:DISL:PPTA:1,2013-03-02T19:00:00Z,30.2791,-87.5561,1.103,33.78,1111122 
DISL,ioos:station:DISL:PPTA:1,2013-03-02T19:30:00Z,30.2791,-87.5561,1.081,34.01,1111122 
DISL,ioos:station:DISL:PPTA:1,2013-03-02T20:00:00Z,30.2791,-87.5561,1.073,33.95,1111122 
DISL,ioos:station:DISL:PPTA:1,2013-03-02T20:30:00Z,30.2791,-87.5561,1.057,33.97,1111122 
DISL,ioos:station:DISL:PPTA:1,2013-03-02T21:00:00Z,30.2791,-87.5561,1.04,34.16,1111122 
DISL,ioos:station:DISL:PPTA:1,2013-03-02T21:30:00Z,30.2791,-87.5561,1.037,27.82,1111122 
DISL,ioos:station:DISL:PPTA:1,2013-03-02T22:00:00Z,30.2791,-87.5561,1.03,28.49,1111122 
DISL,ioos:station:DISL:PPTA:1,2013-03-02T22:30:00Z,30.2791,-87.5561,0.993,29.78,1111122 
DISL,ioos:station:DISL:PPTA:1,2013-03-02T23:00:00Z,30.2791,-87.5561,0.979,30.51,1111122 
DISL,ioos:station:DISL:PPTA:1,2013-03-02T23:30:00Z,30.2791,-87.5561,0.964,31.14,1111122 
DISL,ioos:station:DISL:PPTA:1,2013-03-03T00:00:00Z,30.2791,-87.5561,0.949,29.72,1111122 
DISL,ioos:station:DISL:PPTA:1,2013-03-03T00:30:00Z,30.2791,-87.5561,0.928,28.85,1111122 
DISL,ioos:station:DISL:PPTA:1,2013-03-03T01:00:00Z,30.2791,-87.5561,0.904,27.51,1111122 
DISL,ioos:station:DISL:PPTA:1,2013-03-03T01:30:00Z,30.2791,-87.5561,0.891,27.0,1111122 
DISL,ioos:station:DISL:PPTA:1,2013-03-03T02:00:00Z,30.2791,-87.5561,0.898,21.45,1111122 
DISL,ioos:station:DISL:PPTA:1,2013-03-03T02:30:00Z,30.2791,-87.5561,0.889,19.73,1111122 
DISL,ioos:station:DISL:PPTA:1,2013-03-03T03:00:00Z,30.2791,-87.5561,0.873,18.89,1111122 
DISL,ioos:station:DISL:PPTA:1,2013-03-03T03:30:00Z,30.2791,-87.5561,0.85,18.41,1111122 
DISL,ioos:station:DISL:PPTA:1,2013-03-03T04:00:00Z,30.2791,-87.5561,0.844,17.57,1111122 
DISL,ioos:station:DISL:PPTA:1,2013-03-03T04:30:00Z,30.2791,-87.5561,0.84,16.24,1111122 
DISL,ioos:station:DISL:PPTA:1,2013-03-03T05:00:00Z,30.2791,-87.5561,0.832,15.59,1111122 
DISL,ioos:station:DISL:PPTA:1,2013-03-03T05:30:00Z,30.2791,-87.5561,0.835,15.13,1111122 
DISL,ioos:station:DISL:PPTA:1,2013-03-03T06:00:00Z,30.2791,-87.5561,0.821,14.55,1111122 
DISL,ioos:station:DISL:PPTA:1,2013-03-03T06:30:00Z,30.2791,-87.5561,0.817,13.8,1111122 
DISL,ioos:station:DISL:PPTA:1,2013-03-03T07:00:00Z,30.2791,-87.5561,0.828,13.34,1111122 
DISL,ioos:station:DISL:PPTA:1,2013-03-03T07:30:00Z,30.2791,-87.5561,0.822,12.9,1111122 
DISL,ioos:station:DISL:PPTA:1,2013-03-03T08:00:00Z,30.2791,-87.5561,0.823,12.72,1111122 
DISL,ioos:station:DISL:PPTA:1,2013-03-03T08:30:00Z,30.2791,-87.5561,0.822,12.29,1111122 
DISL,ioos:station:DISL:PPTA:1,2013-03-03T09:00:00Z,30.2791,-87.5561,0.833,12.03,1111122 
DISL,ioos:station:DISL:PPTA:1,2013-03-03T09:30:00Z,30.2791,-87.5561,0.82,11.93,1111122 
DISL,ioos:station:DISL:PPTA:1,2013-03-03T10:00:00Z,30.2791,-87.5561,0.824,11.75,1111122 
DISL,ioos:station:DISL:PPTA:1,2013-03-03T10:30:00Z,30.2791,-87.5561,0.828,11.68,1111122 
DISL,ioos:station:DISL:PPTA:1,2013-03-03T11:00:00Z,30.2791,-87.5561,0.851,12.19,1111122 
DISL,ioos:station:DISL:PPTA:1,2013-03-03T11:30:00Z,30.2791,-87.5561,0.864,11.42,1111122 
DISL,ioos:station:DISL:PPTA:1,2013-03-03T12:00:00Z,30.2791,-87.5561,0.876,11.87,1111122 
DISL,ioos:station:DISL:PPTA:1,2013-03-03T12:30:00Z,30.2791,-87.5561,0.88,11.5,1111122 
DISL,ioos:station:DISL:PPTA:1,2013-03-03T13:00:00Z,30.2791,-87.5561,0.878,15.59,1111122 
DISL,ioos:station:DISL:PPTA:1,2013-03-03T13:30:00Z,30.2791,-87.5561,0.879,20.54,1111122 
DISL,ioos:station:DISL:PPTA:1,2013-03-03T14:00:00Z,30.2791,-87.5561,0.878,28.05,1111122 
DISL,ioos:station:DISL:PPTA:1,2013-03-03T14:30:00Z,30.2791,-87.5561,0.903,31.56,1111122 
DISL,ioos:station:DISL:PPTA:1,2013-03-03T15:00:00Z,30.2791,-87.5561,0.927,32.32,1111122 
DISL,ioos:station:DISL:PPTA:1,2013-03-03T15:30:00Z,30.2791,-87.5561,0.959,32.1,1111122 
DISL,ioos:station:DISL:PPTA:1,2013-03-03T16:00:00Z,30.2791,-87.5561,0.975,32.52,1111122 
DISL,ioos:station:DISL:PPTA:1,2013-03-03T16:30:00Z,30.2791,-87.5561,0.987,32.86,1111122 
DISL,ioos:station:DISL:PPTA:1,2013-03-03T17:00:00Z,30.2791,-87.5561,1.003,33.07,1111122 
DISL,ioos:station:DISL:PPTA:1,2013-03-03T17:30:00Z,30.2791,-87.5561,1.019,33.36,1111122 
DISL,ioos:station:DISL:PPTA:1,2013-03-03T18:00:00Z,30.2791,-87.5561,1.027,33.49,1111122 
DISL,ioos:station:DISL:PPTA:1,2013-03-03T18:30:00Z,30.2791,-87.5561,1.04,33.44,1111122 
DISL,ioos:station:DISL:PPTA:1,2013-03-03T19:00:00Z,30.2791,-87.5561,1.044,33.58,1111122 
DISL,ioos:station:DISL:PPTA:1,2013-03-03T19:30:00Z,30.2791,-87.5561,1.037,33.53,1111122 
DISL,ioos:station:DISL:PPTA:1,2013-03-03T20:00:00Z,30.2791,-87.5561,1.037,33.53,1111122 
DISL,ioos:station:DISL:PPTA:1,2013-03-03T20:30:00Z,30.2791,-87.5561,1.024,33.68,1111122 
DISL,ioos:station:DISL:PPTA:1,2013-03-03T21:00:00Z,30.2791,-87.5561,1.02,33.63,1111122 
DISL,ioos:station:DISL:PPTA:1,2013-03-03T21:30:00Z,30.2791,-87.5561,1.041,33.65,1111122 
DISL,ioos:station:DISL:PPTA:1,2013-03-03T22:00:00Z,30.2791,-87.5561,1.031,33.72,1111122 
DISL,ioos:station:DISL:PPTA:1,2013-03-03T22:30:00Z,30.2791,-87.5561,0.997,33.78,1111122 
DISL,ioos:station:DISL:PPTA:1,2013-03-03T23:00:00Z,30.2791,-87.5561,0.966,33.79,1111122 
DISL,ioos:station:DISL:PPTA:1,2013-03-03T23:30:00Z,30.2791,-87.5561,0.951,30.36,1111122 
DISL,ioos:station:DISL:PPTA:1,2013-03-04T00:00:00Z,30.2791,-87.5561,0.947,29.03,1111122 
DISL,ioos:station:DISL:PPTA:1,2013-03-04T00:30:00Z,30.2791,-87.5561,0.93,29.58,1111122 
DISL,ioos:station:DISL:PPTA:1,2013-03-04T01:00:00Z,30.2791,-87.5561,0.921,31.12,1111122 
DISL,ioos:station:DISL:PPTA:1,2013-03-04T01:30:00Z,30.2791,-87.5561,0.916,30.46,1111122 
DISL,ioos:station:DISL:PPTA:1,2013-03-04T02:00:00Z,30.2791,-87.5561,0.885,28.19,1111122 
DISL,ioos:station:DISL:PPTA:1,2013-03-04T02:30:00Z,30.2791,-87.5561,0.893,23.53,1111122 
DISL,ioos:station:DISL:PPTA:1,2013-03-04T03:00:00Z,30.2791,-87.5561,0.882,21.78,1111122 
DISL,ioos:station:DISL:PPTA:1,2013-03-04T03:30:00Z,30.2791,-87.5561,0.865,22.73,1111122 
DISL,ioos:station:DISL:PPTA:1,2013-03-04T04:00:00Z,30.2791,-87.5561,0.85,22.26,1111122 
DISL,ioos:station:DISL:PPTA:1,2013-03-04T04:30:00Z,30.2791,-87.5561,0.844,19.77,1111122 
DISL,ioos:station:DISL:PPTA:1,2013-03-04T05:00:00Z,30.2791,-87.5561,0.829,19.98,1111122 
DISL,ioos:station:DISL:PPTA:1,2013-03-04T05:30:00Z,30.2791,-87.5561,0.832,19.15,1111122 
DISL,ioos:station:DISL:PPTA:1,2013-03-04T06:00:00Z,30.2791,-87.5561,0.829,17.56,1111122 
DISL,ioos:station:DISL:PPTA:1,2013-03-04T06:30:00Z,30.2791,-87.5561,0.835,16.7,1111122 
DISL,ioos:station:DISL:PPTA:1,2013-03-04T07:00:00Z,30.2791,-87.5561,0.84,15.19,1111122 
DISL,ioos:station:DISL:PPTA:1,2013-03-04T07:30:00Z,30.2791,-87.5561,0.849,14.95,1111122 
DISL,ioos:station:DISL:PPTA:1,2013-03-04T08:00:00Z,30.2791,-87.5561,0.854,13.58,1111122 
DISL,ioos:station:DISL:PPTA:1,2013-03-04T08:30:00Z,30.2791,-87.5561,0.85,13.25,1111122 
DISL,ioos:station:DISL:PPTA:1,2013-03-04T09:00:00Z,30.2791,-87.5561,0.85,13.22,1111122 
DISL,ioos:station:DISL:PPTA:1,2013-03-04T09:30:00Z,30.2791,-87.5561,0.855,12.32,1111122 
DISL,ioos:station:DISL:PPTA:1,2013-03-04T10:00:00Z,30.2791,-87.5561,0.871,12.38,1111122 
DISL,ioos:station:DISL:PPTA:1,2013-03-04T10:30:00Z,30.2791,-87.5561,0.873,11.56,1111122 
DISL,ioos:station:DISL:PPTA:1,2013-03-04T11:00:00Z,30.2791,-87.5561,0.881,18.01,1111122 
DISL,ioos:station:DISL:PPTA:1,2013-03-04T11:30:00Z,30.2791,-87.5561,0.894,14.98,1111122 
DISL,ioos:station:DISL:PPTA:1,2013-03-04T12:00:00Z,30.2791,-87.5561,0.905,18.06,1111122 
DISL,ioos:station:DISL:PPTA:1,2013-03-04T12:30:00Z,30.2791,-87.5561,0.893,28.43,1111122 
DISL,ioos:station:DISL:PPTA:1,2013-03-04T13:00:00Z,30.2791,-87.5561,0.919,31.09,1111122 
DISL,ioos:station:DISL:PPTA:1,2013-03-04T13:30:00Z,30.2791,-87.5561,0.952,31.48,1111122 
DISL,ioos:station:DISL:PPTA:1,2013-03-04T14:00:00Z,30.2791,-87.5561,0.969,31.92,1111122 
DISL,ioos:station:DISL:PPTA:1,2013-03-04T14:30:00Z,30.2791,-87.5561,1.002,32.15,1111122 
DISL,ioos:station:DISL:PPTA:1,2013-03-04T15:00:00Z,30.2791,-87.5561,1.007,32.86,1111122 
DISL,ioos:station:DISL:PPTA:1,2013-03-04T15:30:00Z,30.2791,-87.5561,1.029,32.68,1111122 
DISL,ioos:station:DISL:PPTA:1,2013-03-04T16:00:00Z,30.2791,-87.5561,1.049,32.83,1111122 
DISL,ioos:station:DISL:PPTA:1,2013-03-04T16:30:00Z,30.2791,-87.5561,1.063,33.07,1111122 
DISL,ioos:station:DISL:PPTA:1,2013-03-04T17:00:00Z,30.2791,-87.5561,1.091,33.13,1111122 
DISL,ioos:station:DISL:PPTA:1,2013-03-04T17:30:00Z,30.2791,-87.5561,1.113,33.16,1111122 
DISL,ioos:station:DISL:PPTA:1,2013-03-04T18:00:00Z,30.2791,-87.5561,1.127,33.13,1111122 
DISL,ioos:station:DISL:PPTA:1,2013-03-04T18:30:00Z,30.2791,-87.5561,1.156,33.22,1111122 
DISL,ioos:station:DISL:PPTA:1,2013-03-04T19:00:00Z,30.2791,-87.5561,1.151,33.04,1111122 
DISL,ioos:station:DISL:PPTA:1,2013-03-04T19:30:00Z,30.2791,-87.5561,1.161,33.06,1111122 
DISL,ioos:station:DISL:PPTA:1,2013-03-04T20:00:00Z,30.2791,-87.5561,1.162,33.13,1111122 
DISL,ioos:station:DISL:PPTA:1,2013-03-04T20:30:00Z,30.2791,-87.5561,1.18,33.03,1111122 
DISL,ioos:station:DISL:PPTA:1,2013-03-04T21:00:00Z,30.2791,-87.5561,1.183,33.06,1111122 
DISL,ioos:station:DISL:PPTA:1,2013-03-04T21:30:00Z,30.2791,-87.5561,1.175,32.57,1111122 
DISL,ioos:station:DISL:PPTA:1,2013-03-04T22:00:00Z,30.2791,-87.5561,1.18,31.45,1111122 
DISL,ioos:station:DISL:PPTA:1,2013-03-04T22:30:00Z,30.2791,-87.5561,1.177,31.22,1111122 
DISL,ioos:station:DISL:PPTA:1,2013-03-04T23:00:00Z,30.2791,-87.5561,1.162,31.11,1111122 
DISL,ioos:station:DISL:PPTA:1,2013-03-04T23:30:00Z,30.2791,-87.5561,1.171,32.23,1111122 
DISL,ioos:station:DISL:PPTA:1,2013-03-05T00:00:00Z,30.2791,-87.5561,1.154,32.36,1111122 
DISL,ioos:station:DISL:PPTA:1,2013-03-05T00:30:00Z,30.2791,-87.5561,1.135,30.04,1111122 
DISL,ioos:station:DISL:PPTA:1,2013-03-05T01:00:00Z,30.2791,-87.5561,1.129,29.41,1111122 
DISL,ioos:station:DISL:PPTA:1,2013-03-05T01:30:00Z,30.2791,-87.5561,1.096,28.66,1111122 
DISL,ioos:station:DISL:PPTA:1,2013-03-05T02:00:00Z,30.2791,-87.5561,1.095,29.62,1111122 
DISL,ioos:station:DISL:PPTA:1,2013-03-05T02:30:00Z,30.2791,-87.5561,1.085,30.57,1111122 
DISL,ioos:station:DISL:PPTA:1,2013-03-05T03:00:00Z,30.2791,-87.5561,1.074,29.75,1111122 
DISL,ioos:station:DISL:PPTA:1,2013-03-05T03:30:00Z,30.2791,-87.5561,1.058,25.23,1111122 
DISL,ioos:station:DISL:PPTA:1,2013-03-05T04:00:00Z,30.2791,-87.5561,1.039,25.92,1111122 
DISL,ioos:station:DISL:PPTA:1,2013-03-05T04:30:00Z,30.2791,-87.5561,1.027,27.78,1111122 
DISL,ioos:station:DISL:PPTA:1,2013-03-05T05:00:00Z,30.2791,-87.5561,1.015,27.67,1111122 
DISL,ioos:station:DISL:PPTA:1,2013-03-05T05:30:00Z,30.2791,-87.5561,1.008,21.29,1111122 
DISL,ioos:station:DISL:PPTA:1,2013-03-05T06:00:00Z,30.2791,-87.5561,0.99,21.67,1111122 
DISL,ioos:station:DISL:PPTA:1,2013-03-05T06:30:00Z,30.2791,-87.5561,0.983,18.73,1111122 
DISL,ioos:station:DISL:PPTA:1,2013-03-05T07:00:00Z,30.2791,-87.5561,0.987,17.5,1111122 
DISL,ioos:station:DISL:PPTA:1,2013-03-05T07:30:00Z,30.2791,-87.5561,0.981,17.01,1111122 
DISL,ioos:station:DISL:PPTA:1,2013-03-05T08:00:00Z,30.2791,-87.5561,0.962,17.01,1111122 
DISL,ioos:station:DISL:PPTA:1,2013-03-05T08:30:00Z,30.2791,-87.5561,0.991,17.55,1111122 
DISL,ioos:station:DISL:PPTA:1,2013-03-05T09:00:00Z,30.2791,-87.5561,0.979,16.35,1111122 
DISL,ioos:station:DISL:PPTA:1,2013-03-05T09:30:00Z,30.2791,-87.5561,0.976,15.61,1111122 
DISL,ioos:station:DISL:PPTA:1,2013-03-05T10:00:00Z,30.2791,-87.5561,0.982,14.17,1111122 
DISL,ioos:station:DISL:PPTA:1,2013-03-05T10:30:00Z,30.2791,-87.5561,0.985,13.97,1111122 
DISL,ioos:station:DISL:PPTA:1,2013-03-05T11:00:00Z,30.2791,-87.5561,1.011,16.66,1111122 
DISL,ioos:station:DISL:PPTA:1,2013-03-05T11:30:00Z,30.2791,-87.5561,1.014,16.42,1111122 
DISL,ioos:station:DISL:PPTA:1,2013-03-05T12:00:00Z,30.2791,-87.5561,1.028,16.65,1111122 
DISL,ioos:station:DISL:PPTA:1,2013-03-05T12:30:00Z,30.2791,-87.5561,1.05,17.6,1111122 
DISL,ioos:station:DISL:PPTA:1,2013-03-05T13:00:00Z,30.2791,-87.5561,1.025,17.34,1111122 
DISL,ioos:station:DISL:PPTA:1,2013-03-05T13:30:00Z,30.2791,-87.5561,1.051,28.22,1111122 
DISL,ioos:station:DISL:PPTA:1,2013-03-05T14:00:00Z,30.2791,-87.5561,1.074,29.96,1111122 
DISL,ioos:station:DISL:PPTA:1,2013-03-05T14:30:00Z,30.2791,-87.5561,1.097,30.36,1111122 
DISL,ioos:station:DISL:PPTA:1,2013-03-05T15:00:00Z,30.2791,-87.5561,1.132,30.72,1111122 
DISL,ioos:station:DISL:PPTA:1,2013-03-05T15:30:00Z,30.2791,-87.5561,1.132,30.13,1111122 
DISL,ioos:station:DISL:PPTA:1,2013-03-05T16:00:00Z,30.2791,-87.5561,1.146,30.86,1111122 
DISL,ioos:station:DISL:PPTA:1,2013-03-05T16:30:00Z,30.2791,-87.5561,1.157,30.88,1111122 
DISL,ioos:station:DISL:PPTA:1,2013-03-05T17:00:00Z,30.2791,-87.5561,1.18,30.5,1111122 
DISL,ioos:station:DISL:PPTA:1,2013-03-05T17:30:00Z,30.2791,-87.5561,1.21,30.8,1111122 
DISL,ioos:station:DISL:PPTA:1,2013-03-05T18:00:00Z,30.2791,-87.5561,1.215,31.48,1111122 
DISL,ioos:station:DISL:PPTA:1,2013-03-05T18:30:00Z,30.2791,-87.5561,1.247,30.76,1111122 
DISL,ioos:station:DISL:PPTA:1,2013-03-05T19:00:00Z,30.2791,-87.5561,1.268,31.3,1111122 
DISL,ioos:station:DISL:PPTA:1,2013-03-05T19:30:00Z,30.2791,-87.5561,1.273,31.17,1111122 
DISL,ioos:station:DISL:PPTA:1,2013-03-05T20:00:00Z,30.2791,-87.5561,1.273,31.96,1111122 
DISL,ioos:station:DISL:PPTA:1,2013-03-05T20:30:00Z,30.2791,-87.5561,1.266,31.94,1111122 
DISL,ioos:station:DISL:PPTA:1,2013-03-05T21:00:00Z,30.2791,-87.5561,1.302,32.02,1111122 
DISL,ioos:station:DISL:PPTA:1,2013-03-05T21:30:00Z,30.2791,-87.5561,1.296,31.64,1111122 
DISL,ioos:station:DISL:PPTA:1,2013-03-05T22:00:00Z,30.2791,-87.5561,1.312,31.74,1111122 
DISL,ioos:station:DISL:PPTA:1,2013-03-05T22:30:00Z,30.2791,-87.5561,1.338,31.88,1111122 
DISL,ioos:station:DISL:PPTA:1,2013-03-05T23:00:00Z,30.2791,-87.5561,1.306,31.56,1111122 
DISL,ioos:station:DISL:PPTA:1,2013-03-05T23:30:00Z,30.2791,-87.5561,1.311,31.8,1111122 
DISL,ioos:station:DISL:PPTA:1,2013-03-06T00:00:00Z,30.2791,-87.5561,1.33,32.04,1111122 
DISL,ioos:station:DISL:PPTA:1,2013-03-06T00:30:00Z,30.2791,-87.5561,1.296,32.21,1111122 
DISL,ioos:station:DISL:PPTA:1,2013-03-06T01:00:00Z,30.2791,-87.5561,1.286,32.0,1111122 
DISL,ioos:station:DISL:PPTA:1,2013-03-06T01:30:00Z,30.2791,-87.5561,1.285,32.26,1111122 
DISL,ioos:station:DISL:PPTA:1,2013-03-06T02:00:00Z,30.2791,-87.5561,1.256,31.6,1111122 
DISL,ioos:station:DISL:PPTA:1,2013-03-06T02:30:00Z,30.2791,-87.5561,1.224,31.23,1111122 
DISL,ioos:station:DISL:PPTA:1,2013-03-06T03:00:00Z,30.2791,-87.5561,1.224,31.35,1111122 
DISL,ioos:station:DISL:PPTA:1,2013-03-06T03:30:00Z,30.2791,-87.5561,1.193,31.26,1111122 
DISL,ioos:station:DISL:PPTA:1,2013-03-06T04:00:00Z,30.2791,-87.5561,1.176,30.48,1111122 
DISL,ioos:station:DISL:PPTA:1,2013-03-06T04:30:00Z,30.2791,-87.5561,1.167,30.1,1111122 
DISL,ioos:station:DISL:PPTA:1,2013-03-06T05:00:00Z,30.2791,-87.5561,1.144,27.31,1111122 
DISL,ioos:station:DISL:PPTA:1,2013-03-06T05:30:00Z,30.2791,-87.5561,1.129,26.35,1111122 
DISL,ioos:station:DISL:PPTA:1,2013-03-06T06:00:00Z,30.2791,-87.5561,1.1,25.74,1111122 
DISL,ioos:station:DISL:PPTA:1,2013-03-06T06:30:00Z,30.2791,-87.5561,1.091,27.71,1111122 
DISL,ioos:station:DISL:PPTA:1,2013-03-06T07:00:00Z,30.2791,-87.5561,1.073,25.72,1111122 
DISL,ioos:station:DISL:PPTA:1,2013-03-06T07:30:00Z,30.2791,-87.5561,1.054,24.87,1111122 
DISL,ioos:station:DISL:PPTA:1,2013-03-06T08:00:00Z,30.2791,-87.5561,1.041,24.31,1111122 
DISL,ioos:station:DISL:PPTA:1,2013-03-06T08:30:00Z,30.2791,-87.5561,1.033,23.38,1111122 
DISL,ioos:station:DISL:PPTA:1,2013-03-06T09:00:00Z,30.2791,-87.5561,1.011,21.95,1111122 
DISL,ioos:station:DISL:PPTA:1,2013-03-06T09:30:00Z,30.2791,-87.5561,0.988,21.49,1111122 
DISL,ioos:station:DISL:PPTA:1,2013-03-06T10:00:00Z,30.2791,-87.5561,0.99,21.0,1111122 
DISL,ioos:station:DISL:PPTA:1,2013-03-06T10:30:00Z,30.2791,-87.5561,0.984,19.26,1111122 
DISL,ioos:station:DISL:PPTA:1,2013-03-06T11:00:00Z,30.2791,-87.5561,0.962,18.48,1111122 
DISL,ioos:station:DISL:PPTA:1,2013-03-06T11:30:00Z,30.2791,-87.5561,0.966,18.27,1111122 
DISL,ioos:station:DISL:PPTA:1,2013-03-06T12:00:00Z,30.2791,-87.5561,0.969,17.53,1111122 
DISL,ioos:station:DISL:PPTA:1,2013-03-06T12:30:00Z,30.2791,-87.5561,0.98,17.45,1111122 
DISL,ioos:station:DISL:PPTA:1,2013-03-06T13:00:00Z,30.2791,-87.5561,0.992,25.21,1111122 
DISL,ioos:station:DISL:PPTA:1,2013-03-06T13:30:00Z,30.2791,-87.5561,1.006,19.21,1111122 
DISL,ioos:station:DISL:PPTA:1,2013-03-06T14:00:00Z,30.2791,-87.5561,1.002,19.62,1111122 